Location: Wells
(51.2093°N, 2.6446°W)
Time: 13:58:51
(UTC+01:00)

CUBEBUG 2 - Pass Details

Date: 16 March 2026
Orbit: 548 x 627 km, 97.9° (Epoch: 14 April)

Event Time Altitude Azimuth Distance (km) Brightness Sun altitude
Rises 02:03:23 0° 20° (NNE) 2,896 ? -35.9°
Reaches altitude 10° 02:05:43 10° 29° (NNE) 1,995 ? -35.7°
Enters shadow 02:07:08 19° 39° (NE) 1,490 ? -35.6°
